Regional Weather Roundup
Issued by NWS

Home | Current Version | Previous Version | Graphics & Text | Print | Product List | Glossary On
Versions: 1 2 3 4 5 6 7 8 9 10 11 12 13 14 15 16 17 18 19 20 21 22 23 24 25 26 27 28 29 30 31 32 33 34 35 36 37 38 39 40 41 42 43 44 45 46 47 48 49 50
000
ASUS45 KCYS 190710
RWRWY

WYOMING REGIONAL WEATHER ROUNDUP
NATIONAL WEATHER SERVICE CHEYENNE WY
100 AM MDT TUE AUG 19 2014

NOTE:  "FAIR" INDICATES FEW OR NO CLOUDS BELOW 12,000 FEET
WITH NO SIGNIFICANT WEATHER AND/OR OBSTRUCTIONS TO VISIBILITY.

WYZ001-190800-
YELLOWSTONE NATIONAL PARK

CITY           SKY/WX    TMP DP  RH WIND       PRES   REMARKS
LK YELLOWSTONE   N/A     41  38  89 CALM      30.21F
W YELLOWSTONE  NOT AVBL

$$
WYZ002>013-054>058-071-098>099-190800-
NORTHERN WYOMING

CITY           SKY/WX    TMP DP  RH WIND       PRES   REMARKS
JACKSON        PTCLDY    52  41  66 CALM      30.11S
CODY           PTCLDY    66  43  42 S8        29.97F
GREYBULL       PTCLDY    66  47  50 N5        29.90S
WORLAND        PTCLDY    62  44  51 CALM      29.92F
SHERIDAN       MOCLDY    56  49  77 SW3       29.91F
BUFFALO        PTCLDY    66  47  50 S7        29.99F
GILLETTE       PTCLDY    61  45  55 S12       29.94F
HULETT         FAIR      63  50  63 MISG      29.97
NEWCASTLE      FAIR      64  46  52 CALM      29.97

$$
WYZ014>020-022>026-101>103-190800-
CENTRAL WYOMING

CITY           SKY/WX    TMP DP  RH WIND       PRES   REMARKS
BIG PINEY      CLEAR     51  35  54 CALM      30.13F
PINEDALE       SUNNY     46  37  71 W5        30.13F
DUBOIS         FAIR      55  34  44 W12       30.15S
LANDER         CLEAR     66  37  34 W9        30.01F
RIVERTON       CLEAR     64  39  39 NW13      30.01F
CASPER         PTCLDY    54  39  57 W6        30.00R
DOUGLAS        CLEAR     61  48  62 E8        29.98F

$$
WYZ021-027>030-104>119-190800-
SOUTHERN WYOMING

CITY           SKY/WX    TMP DP  RH WIND       PRES   REMARKS
EVANSTON       MOCLDY    64  32  30 SE8       30.11F
KEMMERER       PTSUNNY  N/A N/A N/A N13       30.13F
FORT BRIDGER   FAIR      60  34  37 SW7       30.12F
ROCK SPRINGS   MOCLDY    67  30  25 SE8       30.09F
DIXON          FAIR      62  35  36 E3        30.11F
RAWLINS        PTCLDY    61  34  36 N12       30.11S
SARATOGA       FAIR      54  36  50 MISG      30.13F
LARAMIE        CLEAR     58  42  55 S15       30.15F
CHEYENNE       CLEAR     60  50  69 SW14      30.10F
TORRINGTON     CLEAR     60  55  83 NE6       29.95S
PINE BLUFFS    FAIR      59  50  72 SW14      30.04S

$$



USA.gov is the U.S. government's official web portal to all federal, state and local government web resources and services.